Hourly Data Report for October 23, 2016

All times are specified in Local Standard Time (LST). Add 1 hour to adjust for Daylight Saving Time where and when it is observed.

BAKER LAKE A
NUNAVUT

64°17'56.000" N
96°04'40.000" W
18.60 m
2300503
71926
YBK

Download Data

Hourly Data (October 2016)
Hourly Data Report for October 23, 2016
Temp Definition
°C
Dew Point Temp Definition
°C
Rel Hum Definition
%
Wind Dir Definition
10's deg

Wind Spd Definition
km/h
Visibility Definition
km
Stn Press Definition
kPa
Hmdx Definition


Wind Chill Definition


Weather Definition


TIME
00:00 Legend Double Dagger -4.6 -6.3 88 7 41 24.1 102.35   -14 Snow,Blowing Snow
01:00 Legend Double Dagger -4.6 -6.3 88 7 30 24.1 102.38   -12 Snow,Blowing Snow
02:00 Legend Double Dagger -4.5 -6.2 88 7 27 24.1 102.39   -12 Snow,Blowing Snow
03:00 Legend Double Dagger -3.9 -5.3 90 7 30 24.1 102.39   -12 Snow,Blowing Snow
04:00 Legend Double Dagger -3.6 -5.0 90 7 32 24.1 102.41   -11 Snow,Blowing Snow
05:00 Legend Double Dagger -3.6 -5.0 90 7 36 24.1 102.46   -12 Snow,Blowing Snow
06:00 Legend Double Dagger -3.4 -4.7 91 7 32 24.1 102.48   -11 Snow,Blowing Snow
07:00 Legend Double Dagger -3.1 -4.2 92 7 31 24.1 102.49   -11 Snow,Blowing Snow
08:00 Legend Double Dagger -2.9 -4.0 92 7 31 24.1 102.52   -10 Snow
09:00 Legend Double Dagger -2.4 -3.4 93 7 27 6.4 102.53   -9 Snow,Fog,Blowing Snow
10:00 Legend Double Dagger -1.6 -2.6 93 8 26 12.9 102.56   -8 Snow
11:00 Legend Double Dagger -1.4 -2.4 93 8 28 6.4 102.59   -8 Snow,Blowing Snow
12:00 Legend Double Dagger -1.2 -2.3 92 8 27 16.1 102.61   -8 Snow,Blowing Snow
13:00 Legend Double Dagger -1.1 -2.2 92 8 27 24.1 102.65   -8 Snow,Blowing Snow
14:00 Legend Double Dagger -1.0 -2.3 91 8 26 24.1 102.69   -7 Blowing Snow
15:00 Legend Double Dagger -1.2 -2.0 94 8 21 4.0 102.72   -7 Snow,Blowing Snow
16:00 Legend Double Dagger -0.6 -1.5 94 9 28 9.7 102.74   -7 Snow,Blowing Snow
17:00 Legend Double Dagger -0.4 -1.3 94 9 27 8.1 102.78   -7 Snow,Blowing Snow
18:00 Legend Double Dagger -0.1 -0.8 95 10 28 6.4 102.85   -6 Snow,Blowing Snow
19:00 Legend Double Dagger -0.3 -1.3 93 11 27 12.9 102.89   -7 Snow,Blowing Snow
20:00 Legend Double Dagger -0.4 -1.5 92 11 29 24.1 102.92   -7 Snow,Blowing Snow
21:00 Legend Double Dagger -0.6 -1.9 91 10 28 24.1 102.94   -7 Snow,Blowing Snow
22:00 Legend Double Dagger -1.8 -2.5 95 8 18 24.1 102.97   -7 Snow,Blowing Snow
23:00 Legend Double Dagger -2.5 -3.3 94 8 23 24.1 103.00   -9 Snow

Notes on Data Quality.

Legend

  • E = Estimated
  • M = Missing
  • NA = Not Available
  • ‡ = Partner data that is not subject to review by the National Climate Archives
Date modified: